COSMOS 2251 DEB, 40218

Orbit data source: Space-Track

COSMOS 2251 DEB, 40218 is space debris in LEO originally from a launch on Wed, 16 Jun 1993 UTC launched from the Plesetsk Missile And Space Complex (PKMTR). The debris from Iridium 33, an American commercial communications satellite, has been tracked extensively since its accidental collision with the defunct Russian satellite Cosmos 2251 in 2009. This event, occurring at high speed in low Earth orbit (LEO), generated thousands of pieces of space debris, significantly increasing the risk of further collisions. The Iridium 33 debris cloud has impacted space traffic management and orbital debris mitigation strategies, making it a subject of ongoing study in space situational awareness.

Loading next visibility...
Identifier
40218, 1993-036BUX
Orbit
LEO
Country
Flag of CISCIS
Related business
Manufacturer
Unknown
Mission
Spacecraft
Bus & Motor
Unknown
Mass
Unknown
Launch date (UTC)
1993-06-16 (33 years ago)
Launch vehicle
Unknown
Launch site
Plesetsk Missile And Space Complex (PKMTR)
Object type
Payload
Rocket body
Debris
Shape & HBR
Unknown shape, 0.1 m
Radar Cross Section
Small (<0.1 m²)

Expand to show TLE details & history
Last TLE update: 6 days ago

TLE from 6 days ago
0 COSMOS 2251 DEB
1 40218U 93036BUX 25348.45036171  .00001474  00000-0  46023-3 0  9999
2 40218  74.0298 245.6562 0016873 328.6000  31.4147 14.41597705588869
Epoch: 2025-12-14T10:48Z
TLE epoch observation values (Epoch: 2025-12-14T10:48:31.251Z)
Latitude
-0.00002°
Longitude
0.16288°
Altitude
745.577 km
Speed
7.487 km/s
True Right ascension
16h 22m 37s
True Declination
0° 00' 00"
Sunlit
Object was in daylight at epoch
Visualization orbit readout
Latitude
Unknown
Longitude
Unknown
Altitude
Unknown
Speed
Unknown
Apparent Right ascension
Unknown
Apparent Declination
Unknown
Sunlit
N/A
Visualization observer readout
Local Sidereal Time
07:09:36
Azimuth
Unknown
Elevation
Unknown
Doppler factor
Unknown
Orbital elements
Apogee altitude
762.872 km
Perigee altitude
738.814 km
Semi-major axis
7,128.98 km
Eccentricity
0.00169
Inclination
74.0298°
RAAN
245.6562°
Arg. of periapsis
328.6°
True anomaly
31.51566°
Mean anomaly
31.4147°
Eccentric anomaly
31.46516°
Mean motion
3.6058 °/min
Orbital period
99.84 mins
BSTAR
0.00046023
Loading maneuver chart data...
Computing Atmospheric mass density...

Documentation

Showing up to 5 results
|